User: anonymous   Login
Location: Baix
(44.7118°N, 4.7648°E)
Time: 06:44:20
(UTC+00:00)
Language:

Transit 2A Rocket - Orbit

View from above orbital plane
View from above orbital plane
View from above satellite
View from above satellite

Ground track
Ground track

The orbit data is extracted from the following two-line orbital elements,

1    47U 60007C   20331.84834257 +.00000097 +00000-0 +46388-4 0  9993
2    47 066.6664 080.7478 0228664 186.3294 173.4913 14.42115378158099
Epoch (UTC): 26 November 2020 20:21:36
Eccentricity: 0.0228664
inclination: 66.6664°
perigee height: 588 km
apogee height: 914 km
right ascension of ascending node: 80.7478°
argument of perigee: 186.3294°
revolutions per day: 14.42115378
mean anomaly at epoch: 173.4913°
orbit number at epoch: 15809

The dashed part of the orbit path shows where the satellite is in the earth's shadow,  

DLR